TimeCST,TemperatureF,Dew PointF,Humidity,Sea Level PressureIn,VisibilityMPH,Wind Direction,Wind SpeedMPH,Gust SpeedMPH,PrecipitationIn,Events,Conditions,WindDirDegrees,DateUTC
12:53 AM,39.0,35.1,86,30.33,10.0,Calm,Calm,-,N/A,,Clear,0,2013-12-28 06:53:00
1:53 AM,39.9,36.0,86,30.32,10.0,Calm,Calm,-,N/A,,Clear,0,2013-12-28 07:53:00
2:53 AM,39.0,35.1,86,30.30,10.0,NE,3.5,-,N/A,,Clear,50,2013-12-28 08:53:00
3:53 AM,41.0,36.0,82,30.28,9.0,Calm,Calm,-,N/A,,Scattered Clouds,0,2013-12-28 09:53:00
4:53 AM,39.9,37.0,89,30.27,10.0,Calm,Calm,-,N/A,,Mostly Cloudy,0,2013-12-28 10:53:00
5:53 AM,41.0,36.0,82,30.27,10.0,Calm,Calm,-,0.00,,Overcast,0,2013-12-28 11:53:00
6:53 AM,39.9,37.0,89,30.26,9.0,ENE,3.5,-,0.00,,Partly Cloudy,60,2013-12-28 12:53:00
7:53 AM,41.0,37.0,86,30.25,9.0,Calm,Calm,-,N/A,,Clear,0,2013-12-28 13:53:00
8:53 AM,43.0,37.9,82,30.28,10.0,Calm,Calm,-,N/A,,Scattered Clouds,0,2013-12-28 14:53:00
9:53 AM,46.9,36.0,66,30.27,10.0,Calm,Calm,-,N/A,,Clear,0,2013-12-28 15:53:00
10:53 AM,48.9,35.1,59,30.25,10.0,Calm,Calm,-,N/A,,Clear,0,2013-12-28 16:53:00
11:53 AM,50.0,36.0,59,30.21,10.0,Calm,Calm,-,N/A,,Clear,0,2013-12-28 17:53:00
12:53 PM,52.0,36.0,54,30.15,10.0,Calm,Calm,-,N/A,,Clear,0,2013-12-28 18:53:00
1:53 PM,52.0,33.1,49,30.12,10.0,South,3.5,-,N/A,,Clear,190,2013-12-28 19:53:00
2:53 PM,52.0,34.0,50,30.09,10.0,South,3.5,-,N/A,,Clear,190,2013-12-28 20:53:00
3:53 PM,51.1,35.1,54,30.08,10.0,Calm,Calm,-,N/A,,Clear,0,2013-12-28 21:53:00
4:53 PM,51.1,33.1,50,30.06,10.0,Calm,Calm,-,N/A,,Clear,0,2013-12-28 22:53:00
5:53 PM,46.9,34.0,61,30.05,10.0,SE,3.5,-,N/A,,Clear,130,2013-12-28 23:53:00
6:53 PM,46.0,33.1,61,30.05,10.0,SSE,3.5,-,N/A,,Clear,160,2013-12-29 00:53:00
7:53 PM,39.9,33.1,77,30.04,10.0,Calm,Calm,-,N/A,,Clear,0,2013-12-29 01:53:00
8:53 PM,41.0,30.0,65,30.02,10.0,ESE,3.5,-,N/A,,Clear,120,2013-12-29 02:53:00
9:53 PM,37.0,32.0,82,30.02,10.0,Calm,Calm,-,N/A,,Clear,0,2013-12-29 03:53:00
10:53 PM,39.0,33.1,79,30.02,10.0,Calm,Calm,-,N/A,,Scattered Clouds,0,2013-12-29 04:53:00
11:53 PM,41.0,33.1,73,30.01,10.0,Calm,Calm,-,N/A,,Overcast,0,2013-12-29 05:53:00